When you browse on this site, cookies collect data to enhance your experience and personalize the content and advertising you see.
Visit our Privacy Policy to learn more. By continuing to use the site, you agree to this use of cookies and data.
  • en Suisse
  • Liste des pays
  • À 7 jours
  • Température de l'eau
  • Carte météo
  • Widgets météo
  • user-avatar
    Se connecter

    Météo par heure à Makeevskaya

    Ce jour, 20 Août, Mardi

    Heure Température Précipitation Vent Pression Humidité
    00:00 +17°C° 0 mm 2 m/s 748 mmHg 90%
    01:00 +17°C° 0 mm 2 m/s 748 mmHg 90%
    02:00 +17°C° 0 mm 2 m/s 748 mmHg 90%
    03:00 +16°C° 0 mm 2 m/s 748 mmHg 90%
    04:00 +16°C° 0 mm 2 m/s 749 mmHg 90%
    05:00 +16°C° 0 mm 2 m/s 749 mmHg 90%
    06:00 +17°C° 0.1 mm 2 m/s 749 mmHg 86%
    07:00 +19°C° 0.1 mm 2 m/s 749 mmHg 83%
    08:00 +20°C° 0.1 mm 2 m/s 749 mmHg 79%
    09:00 +23°C° 0 mm 2 m/s 749 mmHg 76%
    10:00 +24°C° 0 mm 2 m/s 749 mmHg 73%
    11:00 +26°C° 0 mm 2 m/s 750 mmHg 71%
    12:00 +26°C° 0.7 mm 2 m/s 750 mmHg 73%
    13:00 +26°C° 0.7 mm 2 m/s 750 mmHg 76%
    14:00 +26°C° 0.7 mm 2 m/s 750 mmHg 79%
    15:00 +26°C° 0.8 mm 2 m/s 750 mmHg 82%
    16:00 +25°C° 0.8 mm 1 m/s 750 mmHg 85%
    17:00 +24°C° 0.8 mm 1 m/s 750 mmHg 88%
    18:00 +23°C° 0 mm 1 m/s 750 mmHg 89%
    19:00 +22°C° 0 mm 1 m/s 750 mmHg 90%
    20:00 +21°C° 0 mm 1 m/s 750 mmHg 92%
    21:00 +21°C° 0 mm 1 m/s 750 mmHg 92%
    22:00 +21°C° 0 mm 1 m/s 750 mmHg 93%
    23:00 +20°C° 0 mm 1 m/s 750 mmHg 93%

    Demain, 21 Août, Mercredi

    Heure Température Précipitation Vent Pression Humidité
    00:00 +20°C° 0 mm 1 m/s 750 mmHg 94%
    01:00 +20°C° 0 mm 1 m/s 751 mmHg 94%
    02:00 +19°C° 0 mm 1 m/s 751 mmHg 95%
    03:00 +19°C° 0.6 mm 1 m/s 751 mmHg 95%
    04:00 +19°C° 0.6 mm 1 m/s 750 mmHg 96%
    05:00 +19°C° 0.6 mm 1 m/s 750 mmHg 96%
    06:00 +20°C° 0.3 mm 1 m/s 750 mmHg 94%
    07:00 +21°C° 0.3 mm 1 m/s 750 mmHg 93%
    08:00 +21°C° 0.3 mm 2 m/s 751 mmHg 91%
    09:00 +23°C° 0 mm 2 m/s 750 mmHg 85%
    10:00 +24°C° 0 mm 2 m/s 750 mmHg 79%
    11:00 +26°C° 0 mm 2 m/s 750 mmHg 74%
    12:00 +27°C° 0 mm 3 m/s 750 mmHg 70%
    13:00 +27°C° 0 mm 3 m/s 750 mmHg 66%
    14:00 +28°C° 0 mm 3 m/s 750 mmHg 63%
    15:00 +28°C° 0.2 mm 3 m/s 749 mmHg 67%
    16:00 +27°C° 0.2 mm 3 m/s 749 mmHg 72%
    17:00 +27°C° 0.2 mm 3 m/s 748 mmHg 77%
    18:00 +25°C° 0.2 mm 2 m/s 748 mmHg 81%
    19:00 +24°C° 0.2 mm 2 m/s 748 mmHg 85%
    20:00 +21°C° 0.2 mm 2 m/s 748 mmHg 90%
    21:00 +21°C° 0 mm 2 m/s 748 mmHg 90%
    22:00 +20°C° 0 mm 2 m/s 748 mmHg 90%
    23:00 +20°C° 0 mm 3 m/s 748 mmHg 90%

    Après-demain, 22 Août, Jeudi

    Heure Température Précipitation Vent Pression Humidité
    00:00 +19°C° 0.1 mm 2 m/s 748 mmHg 91%
    01:00 +19°C° 0.1 mm 2 m/s 748 mmHg 91%
    02:00 +19°C° 0.1 mm 2 m/s 749 mmHg 91%
    03:00 +18°C° 0.3 mm 2 m/s 749 mmHg 93%
    04:00 +18°C° 0.3 mm 3 m/s 749 mmHg 95%
    05:00 +18°C° 0.3 mm 3 m/s 749 mmHg 97%
    06:00 +17°C° 0.3 mm 3 m/s 749 mmHg 96%
    07:00 +15°C° 0.3 mm 4 m/s 750 mmHg 95%
    08:00 +15°C° 0.3 mm 4 m/s 750 mmHg 94%
    09:00 +17°C° 0.1 mm 4 m/s 750 mmHg 90%
    10:00 +17°C° 0.1 mm 4 m/s 751 mmHg 86%
    11:00 +18°C° 0.1 mm 4 m/s 751 mmHg 81%
    12:00 +19°C° 0 mm 3 m/s 751 mmHg 75%
    13:00 +21°C° 0 mm 3 m/s 751 mmHg 69%
    14:00 +22°C° 0 mm 3 m/s 751 mmHg 63%
    15:00 +22°C° 0 mm 3 m/s 751 mmHg 66%
    16:00 +23°C° 0 mm 2 m/s 751 mmHg 68%
    17:00 +21°C° 0 mm 2 m/s 751 mmHg 71%
    18:00 +20°C° 0 mm 2 m/s 752 mmHg 75%
    19:00 +18°C° 0 mm 2 m/s 752 mmHg 79%
    20:00 +16°C° 0 mm 2 m/s 752 mmHg 84%
    21:00 +15°C° 0 mm 2 m/s 752 mmHg 84%
    22:00 +15°C° 0 mm 2 m/s 752 mmHg 85%
    23:00 +14°C° 0 mm 2 m/s 753 mmHg 86%

    23 Août, Vendredi

    Heure Température Précipitation Vent Pression Humidité
    00:00 +13°C° 0 mm 2 m/s 753 mmHg 86%
    01:00 +13°C° 0 mm 2 m/s 753 mmHg 87%
    02:00 +12°C° 0 mm 1 m/s 753 mmHg 88%
    03:00 +12°C° 0 mm 1 m/s 753 mmHg 89%
    04:00 +11°C° 0 mm 1 m/s 753 mmHg 90%
    05:00 +11°C° 0 mm 1 m/s 753 mmHg 91%
    06:00 +13°C° 0 mm 1 m/s 753 mmHg 85%
    07:00 +15°C° 0 mm 1 m/s 753 mmHg 79%
    08:00 +18°C° 0 mm 1 m/s 753 mmHg 73%
    09:00 +19°C° 0 mm 1 m/s 754 mmHg 67%
    10:00 +21°C° 0 mm 1 m/s 754 mmHg 62%
    11:00 +22°C° 0 mm 1 m/s 754 mmHg 56%
    12:00 +23°C° 0 mm 1 m/s 754 mmHg 54%
    13:00 +23°C° 0 mm 2 m/s 753 mmHg 52%
    14:00 +23°C° 0 mm 2 m/s 753 mmHg 50%
    15:00 +23°C° 0 mm 2 m/s 753 mmHg 55%
    16:00 +23°C° 0 mm 1 m/s 753 mmHg 61%
    17:00 +22°C° 0 mm 1 m/s 753 mmHg 66%
    18:00 +20°C° 0 mm 1 m/s 753 mmHg 72%
    19:00 +17°C° 0 mm 2 m/s 753 mmHg 77%
    20:00 +15°C° 0 mm 2 m/s 753 mmHg 83%
    21:00 +15°C° 0 mm 1 m/s 753 mmHg 85%
    22:00 +14°C° 0 mm 1 m/s 753 mmHg 88%
    23:00 +13°C° 0 mm 1 m/s 754 mmHg 90%

    24 Août, Samedi

    Heure Température Précipitation Vent Pression Humidité
    00:00 +13°C° 0 mm 1 m/s 754 mmHg 91%
    01:00 +13°C° 0 mm 1 m/s 754 mmHg 92%
    02:00 +13°C° 0 mm 1 m/s 754 mmHg 93%
    03:00 +12°C° 0 mm 1 m/s 754 mmHg 93%
    04:00 +12°C° 0 mm 1 m/s 754 mmHg 93%
    05:00 +12°C° 0 mm 1 m/s 754 mmHg 93%
    06:00 +14°C° 0 mm 1 m/s 754 mmHg 87%
    07:00 +16°C° 0 mm 1 m/s 754 mmHg 81%
    08:00 +19°C° 0 mm 1 m/s 754 mmHg 74%
    09:00 +20°C° 0 mm 1 m/s 754 mmHg 69%
    10:00 +20°C° 0 mm 2 m/s 754 mmHg 64%
    11:00 +21°C° 0 mm 2 m/s 754 mmHg 58%
    12:00 +23°C° 0 mm 2 m/s 754 mmHg 57%
    13:00 +23°C° 0 mm 2 m/s 754 mmHg 56%
    14:00 +23°C° 0 mm 2 m/s 753 mmHg 54%
    15:00 +23°C° 0 mm 2 m/s 753 mmHg 59%
    16:00 +23°C° 0 mm 2 m/s 753 mmHg 64%
    17:00 +21°C° 0 mm 2 m/s 753 mmHg 69%
    18:00 +19°C° 0 mm 2 m/s 753 mmHg 76%
    19:00 +18°C° 0 mm 2 m/s 752 mmHg 82%
    20:00 +16°C° 0 mm 2 m/s 752 mmHg 89%
    21:00 +15°C° 0 mm 2 m/s 752 mmHg 90%
    22:00 +15°C° 0 mm 2 m/s 752 mmHg 92%
    23:00 +15°C° 0 mm 2 m/s 752 mmHg 94%

    25 Août, Dimanche

    Heure Température Précipitation Vent Pression Humidité
    00:00 +14°C° 0 mm 2 m/s 752 mmHg 94%
    01:00 +14°C° 0 mm 2 m/s 752 mmHg 94%
    02:00 +14°C° 0 mm 2 m/s 752 mmHg 94%
    03:00 +13°C° 0 mm 2 m/s 752 mmHg 94%
    04:00 +13°C° 0 mm 2 m/s 752 mmHg 94%
    05:00 +13°C° 0 mm 2 m/s 752 mmHg 94%
    06:00 +14°C° 0 mm 2 m/s 752 mmHg 89%
    07:00 +16°C° 0 mm 2 m/s 752 mmHg 83%
    08:00 +18°C° 0 mm 2 m/s 752 mmHg 78%
    09:00 +19°C° 0 mm 3 m/s 751 mmHg 73%
    10:00 +21°C° 0 mm 3 m/s 751 mmHg 68%
    11:00 +22°C° 0 mm 3 m/s 751 mmHg 63%
    12:00 +24°C° 0.1 mm 3 m/s 751 mmHg 62%
    13:00 +24°C° 0.1 mm 3 m/s 751 mmHg 61%
    14:00 +24°C° 0.1 mm 3 m/s 751 mmHg 60%
    15:00 +24°C° 0.1 mm 3 m/s 750 mmHg 66%
    16:00 +22°C° 0.1 mm 3 m/s 750 mmHg 71%
    17:00 +21°C° 0.1 mm 2 m/s 750 mmHg 76%
    18:00 +20°C° 0 mm 2 m/s 750 mmHg 81%
    19:00 +18°C° 0 mm 2 m/s 750 mmHg 87%
    20:00 +18°C° 0 mm 1 m/s 750 mmHg 92%
    21:00 +16°C° 0 mm 1 m/s 750 mmHg 93%
    22:00 +16°C° 0 mm 1 m/s 750 mmHg 93%
    23:00 +15°C° 0 mm 1 m/s 751 mmHg 94%
    Voir plus